Location: Coudray
(47.5583°N, 1.8393°W)
Time: 13:59:28
(UTC+00:00)

Daily predictions for brighter satellites

Satellite Brightness Start Highest point End
(mag) Time Altitude Azimuth Time Altitude Azimuth Time Altitude Azimuth
Cosmos 2333 Rocket 3.3 20:42:24 10° SSE 20:46:50 24° ESE 20:51:19 10° NE
ATLAS 2AS CENTAUR R/B 4.4 20:42:19 10° NW 20:49:03 30° NNE 20:55:21 10° E
Resurs 01 Rocket 2.0 20:47:52 10° S 20:52:15 65° WSW 20:56:40 10° NNW
Cosmos 1818 3.6 20:48:20 10° SSW 20:53:40 61° ESE 20:59:02 10° NE
CZ-2C R/B 3.6 20:49:04 10° N 20:54:21 53° WNW 20:59:29 10° SW
Cosmos-2242 3.4 20:50:15 10° N 20:54:29 50° ENE 20:58:43 10° SSE
SL-16 R/B 3.0 20:51:57 10° SW 20:57:32 58° WNW 21:03:09 10° NNE
ERS-1 Rocket 3.6 20:57:07 10° SE 21:01:51 43° ENE 21:06:36 10° N
GEOS 3 Rocket 3.8 20:59:21 10° NE 21:04:39 53° SE 21:09:54 10° SSW
Cosmos 2278 Rocket 3.7 21:02:48 10° N 21:07:33 27° NE 21:12:17 10° ESE
USA 215 3.6 21:02:10 10° ENE 21:08:16 40° SE 21:14:19 10° SSW
ATLAS 5 CENTAUR R/B 1.4 21:06:13 10° SSW 21:10:19 68° SE 21:14:56 10° NE
USA 245 3.1 21:08:43 10° SSE 21:11:59 88° W 21:16:10 10° NNW
Cosmos 1844 Rocket 2.7 21:07:14 10° NNW 21:12:50 83° WSW 21:18:16 11° SSE
Cosmos 1400 Rocket 2.8 21:09:50 10° N 21:13:50 80° ENE 21:17:41 10° SSE
Cosmos 1758 Rocket 3.6 21:10:17 10° S 21:14:46 86° E 21:19:18 10° N
Meteor 2-10 Rocket 4.2 21:11:56 10° NNW 21:16:54 54° W 21:22:00 10° S
SPOT 5 3.3 21:13:56 12° SE 21:18:31 51° ENE 21:23:10 10° N
Lacrosse 5 rocket 3.8 21:15:01 10° WNW 21:18:33 25° NNW 21:21:56 10° NE
BREEZE-M DEB (TANK) 4.4 21:15:38 10° W 21:19:35 77° N 21:34:34 10° E
Spot 2 Rocket 3.7 21:17:16 10° S 21:22:20 73° WSW 21:27:28 10° NNW
USA 81 4.4 21:19:52 10° SSE 21:24:49 48° E 21:29:53 10° NNE
BREEZE M DEB (TANK) 1.8 21:23:41 10° WNW 21:26:26 54° SSW 21:27:39 20° SE
Landsat 7 4.1 21:22:06 10° S 21:26:51 70° WSW 21:31:37 10° NNW
Cosmos 2181 Rocket 4.2 21:22:24 10° N 21:28:44 64° ENE 21:34:15 13° SSE
SPOT 1/Viking Rocket 3.7 21:31:53 10° S 21:36:56 71° WSW 21:42:07 10° NNW
Cosmos 1953 Rocket 3.5 21:33:34 10° S 21:37:53 83° E 21:42:15 10° N
USA 267 3.7 21:34:59 10° ESE 21:41:27 63° NNE 21:47:55 10° NW
Cosmos 1328 4.4 21:38:48 10° SSW 21:42:42 56° WNW 21:46:38 10° N
SAR-Lupe-2 3.7 21:40:23 10° N 21:43:59 78° WNW 21:47:33 10° SSW
Cosmos 2084 3.7 21:40:23 10° NW 21:44:51 69° NE 21:48:05 18° SE
Cosmos 2322 Rocket 4.1 21:40:00 10° WSW 21:45:03 33° NW 21:50:07 10° NNE
Cosmos 1842 Rocket 4.0 21:42:04 10° N 21:46:17 46° ENE 21:49:02 20° SE
Cosmos 1455 4.2 21:43:56 10° NW 21:47:07 25° W 21:50:18 10° SW
ATLAS CENTAUR R/B 1.0 21:52:41 10° NW 21:56:24 86° NE 21:58:26 25° SE
Cosmos 1825 4.4 21:58:09 11° E 21:59:00 12° E 22:00:26 10° ENE
COSMOS 2428 2.6 21:59:00 10° SSW 22:04:39 77° ESE 22:10:21 10° NNE
Cosmos 1869 3.4 22:03:19 10° N 22:07:17 62° ENE 22:09:22 26° SSE
Cosmos 2322 4.2 22:02:54 10° SW 22:08:36 65° WNW 22:14:18 10° NNE
NOSS 0 Rocket 4.2 22:07:31 16° S 22:12:08 48° ESE 22:18:03 10° NE
NOSS 3-4 (A) 4.2 22:06:30 10° NW 22:13:17 58° NE 22:19:46 14° ESE
CARTOSAT-1 4.5 22:10:04 15° SSW 22:13:20 42° W 22:17:28 10° NNW
NOSS 3-4 (C) 4.3 22:06:37 10° NW 22:13:23 58° NE 22:19:54 14° ESE
Meteor 1-27 4.5 22:08:00 10° NNW 22:13:43 69° W 22:18:05 18° S
Terra 2.0 22:10:33 20° S 22:13:49 70° WSW 22:18:35 10° NNW
Cosmos 2237 Rocket 2.7 22:14:58 22° SSE 22:18:08 41° ESE 22:23:26 10° NE
Genesis I 4.4 22:18:36 24° ESE 22:18:36 24° ESE 22:21:45 10° ENE
BREEZE-M DEB 4.2 22:15:44 10° WNW 22:19:39 75° SSW 22:35:06 10° ESE
Cosmos 2219 Rocket 2.3 22:14:54 10° SSW 22:20:29 75° WNW 22:26:08 10° NNE
Cosmos 2344 4.1 22:16:02 19° SSE 22:20:32 36° ESE 22:27:28 10° NE
Atlas Centaur 2 4.1 22:17:18 10° SW 22:21:15 17° S 22:21:21 17° S
Cosmos 1538 Rocket 4.2 22:16:24 10° SSW 22:21:46 73° WNW 22:27:07 10° NNE
Cosmos 2360 Rocket 4.0 22:17:54 10° WSW 22:22:55 32° NW 22:27:58 10° NNE
NOSS 3-3 (A) 3.9 22:17:10 10° SW 22:23:03 88° NW 22:29:45 10° NE
NOSS 3-3 (C) 3.9 22:17:15 10° SW 22:23:09 89° NW 22:29:52 10° NE
Cosmos 1315 Rocket 3.8 22:23:32 10° NNW 22:27:26 43° W 22:29:55 20° SSW
DELTA 2 R/B (1) 4.3 22:22:56 10° SW 22:27:41 29° SSE 22:30:02 21° SE
Cosmos 2333 Rocket 2.7 22:25:01 10° SW 22:30:39 61° WNW 22:36:21 10° NNE
Thor Agena Rocket 4.0 22:26:16 10° NNE 22:31:06 42° E 22:33:18 27° SSE
Cosmos 2184 Rocket 4.0 22:27:10 18° S 22:31:59 90° E 22:38:21 10° N
Meteor 2-2 Rocket 4.3 22:26:31 10° NNW 22:32:22 81° W 22:35:55 24° S
Cosmos 2221 2.8 22:32:44 10° NNW 22:37:05 63° W 22:39:20 27° SSW
BREEZE-M DEB (TANK) 2.0 22:35:09 10° WNW 22:39:54 68° N 22:41:21 23° E
Iridium 2 4.1 22:37:31 10° N 22:41:16 50° E 22:42:26 36° SE
ATLAS 2AS CENTAUR R/B 3.0 22:33:41 10° NW 22:41:21 74° NE 22:46:25 21° SE
Cosmos 1371 Rocket 4.4 22:36:10 10° NNW 22:41:22 57° ENE 22:44:15 26° SE
Cosmos 1892 2.6 22:41:59 35° S 22:43:30 90° SE 22:47:19 10° N
EO 1 Del DPAF 3.7 22:40:36 10° NNE 22:44:12 42° E 22:44:59 36° SE
Aureole 2 Rocket 3.7 22:46:06 10° N 22:48:25 22° ENE 22:48:59 21° E
Cosmos 1606 4.1 22:47:42 10° NNE 22:51:06 28° ENE 22:52:19 23° ESE
Cosmos 2112 Rocket 4.1 22:48:23 28° S 22:51:09 63° ESE 22:56:28 10° NNE
USA 215 3.4 22:45:02 10° NE 22:51:36 76° NNW 22:58:07 10° WSW
Cosmos 2278 Rocket 2.4 22:46:29 10° NNW 22:52:06 64° WSW 22:54:58 29° S
Cosmos 2297 4.5 22:47:57 10° NNW 22:53:28 45° NE 22:57:11 20° ESE
Cosmos 158 Rocket 3.8 22:52:56 30° S 22:55:20 72° ESE 23:00:15 10° NNE
ATLAS 5 CENTAUR R/B 4.1 22:51:48 10° W 22:55:26 25° NNW 22:59:29 10° NNE
Lacrosse 5 rocket 3.7 22:55:26 10° NW 22:58:45 23° N 23:01:56 10° ENE
Cosmos 1943 Rocket 3.8 22:55:00 10° N 22:59:51 28° NE 23:04:40 10° ESE
Spot 4 3.8 22:59:07 34° SSE 23:01:13 87° ENE 23:06:01 10° NNW
SL-16 R/B 3.0 23:00:46 28° SE 23:02:31 35° ESE 23:07:37 10° NE
Cosmos 2058 3.3 23:01:10 27° SSW 23:03:16 57° WNW 23:07:22 10° N
Cosmos 1408 2.4 23:03:24 47° SSW 23:04:20 83° W 23:07:56 10° N
Cosmos 2056 Rocket 3.6 22:59:55 10° NNW 23:05:22 77° ENE 23:07:58 32° SSE
Nadezhda 3 Rocket 4.2 23:04:00 10° NNW 23:10:20 68° W 23:13:54 27° S
Cosmos 2154 Rocket 4.1 23:07:50 23° SSW 23:11:54 71° W 23:18:08 10° N
Cosmos 2341 Rocket 4.0 23:11:46 30° S 23:14:57 72° E 23:21:10 10° NNE
Cosmos 1076 Rocket 4.2 23:12:53 25° SW 23:15:06 50° WNW 23:19:16 10° N
Cosmos 1680 Rocket 3.8 23:15:58 21° SW 23:19:32 69° WNW 23:24:53 10° NNE
Meteor 2-3 Rocket 4.5 23:21:02 28° SE 23:23:11 39° E 23:28:26 10° NNE
USA 267 3.5 23:21:24 30° SSE 23:24:34 53° SW 23:30:59 10° WNW
Cosmos 2151 2.9 23:23:52 43° S 23:25:15 87° WNW 23:29:34 10° N
Helios 1A 4.0 23:24:53 27° ESE 23:26:25 38° ENE 23:30:17 10° N
Cosmos 1452 Rocket 4.1 23:27:13 10° NNW 23:32:21 49° ENE 23:35:07 26° SE
CZ-4C R/B 4.0 23:26:03 10° NW 23:32:27 40° NE 23:39:50 10° ESE
BREEZE-M DEB (TANK) 4.1 23:30:15 10° W 23:32:45 17° WSW 23:32:45 17° WSW
COSMOS 2455 3.5 23:28:01 10° NNW 23:33:54 51° NE 23:38:24 17° ESE
SL-8 Rocket 4.0 23:30:59 33° S 23:33:55 75° E 23:40:05 10° NNE
Cosmos 1825 2.6 23:32:56 40° SW 23:33:59 57° WNW 23:37:44 10° N
IRIDIUM 114 4.4 23:32:35 37° SSE 23:34:36 68° E 23:39:47 10° N
Cosmos 1340 3.1 23:34:23 42° ESE 23:34:46 43° E 23:38:22 10° NNE
ALOS 2 2.5 23:35:27 45° S 23:36:46 82° WSW 23:41:11 10° NNW
Cosmos 1408 Rocket 4.0 23:35:56 39° SE 23:36:58 48° E 23:41:13 10° NNE
Cosmos 1933 3.4 23:33:17 10° N 23:37:18 69° E 23:38:13 49° SE
Cosmos 1151 Rocket 3.0 23:34:30 10° N 23:38:52 78° E 23:40:03 47° SSE
Meteor 2-12 Rocket 4.5 23:37:27 34° SSE 23:40:13 69° E 23:46:20 10° NNE
IRIDIUM 103 4.3 23:41:42 39° S 23:43:43 81° E 23:48:58 10° N
APEX 3.4 23:41:47 10° NNW 23:44:22 40° NE 23:44:22 40° NE
Cosmos 2369 Rocket 3.3 23:39:22 10° NNW 23:44:38 39° NE 23:48:49 15° ESE
Cosmos 44 2.9 23:43:38 48° SSW 23:44:44 72° SE 23:49:10 10° NE
Cosmos 1727 Rocket 4.3 23:38:44 10° N 23:44:54 60° ENE 23:48:04 29° SE
GP-B 3.1 23:43:03 10° N 23:47:31 80° W 23:48:50 45° SSW
SL-4 R/B 3.0 23:48:59 22° N 23:48:59 22° N 23:49:55 10° N
Cosmos 371 Rocket 3.2 23:43:48 10° NNW 23:48:42 85° ENE 23:50:25 41° SSE
Helios 1B rocket 4.0 23:51:25 10° NE 23:54:42 22° E 23:55:23 21° ESE
CREW DRAGON DEMO-1 DEB 2.9 23:54:48 74° N 23:54:48 74° N 23:57:47 10° ENE
Genesis I 4.3 23:53:26 18° WSW 23:55:59 42° NW 23:59:43 10° NNE
